Location: Dal�� Lhota
(48.7500°N, 14.0167°E)
Time: 22:21:56
(UTC+00:00)

Cosmos 1125 Rocket - Pass Details

Date: 24 September 2020
Orbit: 758 x 780 km, 74.0° (Epoch: 24 October)

Event Time Altitude Azimuth Distance (km) Brightness Sun altitude
Rises 18:40:01 0° 208° (SSW) 3,249 6.9 -17.5°
Reaches altitude 10° 18:42:24 10° 210° (SSW) 2,327 6.1 -17.9°
Maximum altitude 18:47:41 71° 295° (WNW) 825 3.8 -18.7°
Drops below altitude 10° 18:53:01 10° 20° (NNE) 2,343 6.0 -19.5°
Sets 18:55:25 0° 22° (NNE) 3,274 6.8 -19.9°
